Back to Top

Language: 

My Weather Underground Personal Weather Station Historical Data with Graphs...

Delerius Weather Station Historical Data
Daily Summary for June 10, 2017 Units:  English    Metric   Both
« Previous Day
Next Day »
Daily Weekly Monthly Yearly Custom
  High: Low: Average:
Temperature: 66.7 °F 53.8 °F 59.7 °F
Dew Point: 61.7 °F 48.1 °F 55.9 °F
Humidity: 96 % 78 % 88 %
Wind Speed: 17.0 mph 0.0 mph 7.3 mph
Wind Gust: 31.0 mph - -
Wind:- - SSW
Pressure: 29.93 in 29.84 in -
Precipitation: 0.16 in    
Historical Graphs
 
 
Tabular Data for June 10, 2017
Time Temperature Dew Point Pressure Wind Wind Speed Wind Gust Humidity Rainfall Rate (Hourly) solar Conditions
00:03 54.7 °F 48.3 °F 29.92 in West 1.0 mph 4.0 mph 79 % 0.00 in 0 W/m2
00:08 54.7 °F 48.6 °F 29.92 in Calm   2.0 mph 80 % 0.00 in 0 W/m2
00:13 54.3 °F 48.3 °F 29.92 in Calm     80 % 0.00 in 0 W/m2
00:18 54.3 °F 48.6 °F 29.92 in Calm   1.0 mph 81 % 0.00 in 0 W/m2
00:23 54.1 °F 48.1 °F 29.92 in Calm   1.0 mph 80 % 0.00 in 0 W/m2
00:28 54.1 °F 48.4 °F 29.92 in Calm   3.0 mph 81 % 0.00 in 0 W/m2
00:33 54.3 °F 48.6 °F 29.92 in West 1.0 mph 5.0 mph 81 % 0.00 in 0 W/m2
00:38 54.3 °F 48.6 °F 29.93 in West 1.0 mph 5.0 mph 81 % 0.00 in 0 W/m2
00:43 54.3 °F 48.6 °F 29.92 in Calm   2.0 mph 81 % 0.00 in 0 W/m2
00:44 54.3 °F 48.6 °F 29.92 in Calm   2.0 mph 81 % 0.00 in 0 W/m2
00:49 54.3 °F 48.6 °F 29.93 in Calm   2.0 mph 81 % 0.00 in 0 W/m2
00:54 54.3 °F 48.6 °F 29.93 in Calm     81 % 0.00 in 0 W/m2
00:59 54.1 °F 48.8 °F 29.93 in Calm     82 % 0.00 in 0 W/m2
01:04 54.1 °F 48.8 °F 29.92 in Calm     82 % 0.00 in 0 W/m2
01:09 54.1 °F 48.8 °F 29.92 in Calm     82 % 0.00 in 0 W/m2
01:14 54.1 °F 48.8 °F 29.92 in Calm     82 % 0.00 in 0 W/m2
01:19 54.1 °F 49.1 °F 29.92 in Calm     83 % 0.00 in 0 W/m2
01:24 54.0 °F 48.9 °F 29.92 in Calm     83 % 0.00 in 0 W/m2
01:29 54.0 °F 48.9 °F 29.92 in Calm     83 % 0.00 in 0 W/m2
01:35 54.0 °F 48.9 °F 29.92 in Calm     83 % 0.00 in 0 W/m2
01:40 54.1 °F 49.4 °F 29.92 in Calm     84 % 0.00 in 0 W/m2
01:45 54.1 °F 49.4 °F 29.92 in Calm     84 % 0.00 in 0 W/m2
01:50 54.3 °F 49.9 °F 29.92 in Calm     85 % 0.00 in 0 W/m2
01:55 54.3 °F 49.9 °F 29.92 in Calm     85 % 0.00 in 0 W/m2
02:00 54.1 °F 49.7 °F 29.92 in Calm   1.0 mph 85 % 0.00 in 0 W/m2
02:05 54.1 °F 49.7 °F 29.93 in Calm   2.0 mph 85 % 0.00 in 0 W/m2
02:10 54.1 °F 49.7 °F 29.92 in West 1.0 mph 4.0 mph 85 % 0.00 in 0 W/m2
02:15 54.1 °F 49.7 °F 29.92 in West 1.0 mph 5.0 mph 85 % 0.00 in 0 W/m2
02:20 54.1 °F 49.7 °F 29.92 in West 1.0 mph 5.0 mph 85 % 0.00 in 0 W/m2
02:25 54.1 °F 49.7 °F 29.91 in Calm   1.0 mph 85 % 0.00 in 0 W/m2
02:30 54.1 °F 49.7 °F 29.91 in Calm     85 % 0.00 in 0 W/m2
02:35 54.1 °F 50.0 °F 29.91 in Calm     86 % 0.00 in 0 W/m2
02:40 54.1 °F 50.0 °F 29.91 in Calm     86 % 0.00 in 0 W/m2
02:45 54.3 °F 50.2 °F 29.91 in Calm     86 % 0.00 in 0 W/m2
02:50 54.3 °F 50.5 °F 29.91 in Calm     87 % 0.00 in 0 W/m2
02:55 54.3 °F 50.5 °F 29.92 in West 1.0 mph 4.0 mph 87 % 0.00 in 0 W/m2
03:00 54.7 °F 50.6 °F 29.91 in WSW 2.0 mph 5.0 mph 86 % 0.00 in 0 W/m2
03:05 55.0 °F 50.9 °F 29.92 in SSW 2.0 mph 6.0 mph 86 % 0.00 in 0 W/m2
03:10 55.0 °F 50.9 °F 29.92 in South 1.0 mph 6.0 mph 86 % 0.00 in 0 W/m2
03:15 55.0 °F 50.9 °F 29.92 in Calm   4.0 mph 86 % 0.00 in 0 W/m2
03:20 55.0 °F 50.9 °F 29.92 in South 1.0 mph 4.0 mph 86 % 0.00 in 0 W/m2
03:25 55.0 °F 50.9 °F 29.92 in Calm   4.0 mph 86 % 0.00 in 0 W/m2
03:30 55.2 °F 51.4 °F 29.92 in Calm   4.0 mph 87 % 0.00 in 0 W/m2
03:35 55.2 °F 51.4 °F 29.92 in Calm   4.0 mph 87 % 0.00 in 0 W/m2
03:40 55.2 °F 51.4 °F 29.92 in Calm   2.0 mph 87 % 0.01 in 0 W/m2
03:45 55.2 °F 51.4 °F 29.92 in Calm   4.0 mph 87 % 0.01 in 0 W/m2
03:51 55.0 °F 51.2 °F 29.92 in South 1.0 mph 5.0 mph 87 % 0.01 in 0 W/m2
03:56 55.0 °F 51.5 °F 29.92 in SSW 3.0 mph 7.0 mph 88 % 0.01 in 0 W/m2
04:01 54.9 °F 51.4 °F 29.92 in SSW 4.0 mph 7.0 mph 88 % 0.02 in 0 W/m2
04:06 54.9 °F 51.4 °F 29.91 in SSW 4.0 mph 7.0 mph 88 % 0.02 in 0 W/m2
04:11 54.7 °F 51.2 °F 29.91 in SW 4.0 mph 6.0 mph 88 % 0.02 in 0 W/m2
04:16 54.7 °F 51.2 °F 29.91 in SSW 4.0 mph 7.0 mph 88 % 0.02 in 0 W/m2
04:21 54.5 °F 51.0 °F 29.91 in SSW 5.0 mph 8.0 mph 88 % 0.02 in 0 W/m2
04:26 54.5 °F 51.0 °F 29.91 in SSW 6.0 mph 9.0 mph 88 % 0.02 in 0 W/m2
04:31 54.5 °F 51.0 °F 29.91 in SW 5.0 mph 9.0 mph 88 % 0.02 in 0 W/m2
04:36 54.5 °F 51.0 °F 29.91 in SW 4.0 mph 8.0 mph 88 % 0.02 in 0 W/m2
04:46 54.3 °F 51.1 °F 29.91 in SW 3.0 mph 6.0 mph 89 % 0.02 in 0 W/m2
04:51 54.1 °F 51.0 °F 29.91 in SW 2.0 mph 6.0 mph 89 % 0.02 in 0 W/m2
04:56 54.1 °F 51.3 °F 29.92 in SW 2.0 mph 4.0 mph 90 % 0.02 in 0 W/m2
05:01 54.1 °F 51.3 °F 29.92 in SW 2.0 mph 5.0 mph 90 % 0.02 in 0 W/m2
05:06 54.3 °F 51.4 °F 29.92 in SW 2.0 mph 6.0 mph 90 % 0.02 in 0 W/m2
05:12 54.3 °F 51.4 °F 29.91 in SSW 3.0 mph 6.0 mph 90 % 0.02 in 5 W/m2
05:17 54.3 °F 51.4 °F 29.91 in South 4.0 mph 8.0 mph 90 % 0.02 in 7 W/m2
05:22 54.3 °F 51.4 °F 29.92 in SSE 5.0 mph 8.0 mph 90 % 0.02 in 7 W/m2
05:27 54.1 °F 51.3 °F 29.92 in SSE 5.0 mph 9.0 mph 90 % 0.02 in 5 W/m2
05:32 54.1 °F 51.3 °F 29.92 in SSE 5.0 mph 9.0 mph 90 % 0.02 in 7 W/m2
05:37 54.1 °F 51.3 °F 29.92 in SSE 5.0 mph 8.0 mph 90 % 0.02 in 9 W/m2
05:42 54.1 °F 51.6 °F 29.92 in SSE 5.0 mph 8.0 mph 91 % 0.02 in 12 W/m2
05:47 54.1 °F 51.6 °F 29.92 in SSE 5.0 mph 8.0 mph 91 % 0.01 in 19 W/m2
05:52 54.0 °F 51.4 °F 29.91 in SE 6.0 mph 9.0 mph 91 % 0.02 in 28 W/m2
05:57 54.0 °F 51.4 °F 29.91 in SSE 6.0 mph 9.0 mph 91 % 0.02 in 33 W/m2
06:02 54.0 °F 51.7 °F 29.91 in SSE 6.0 mph 10.0 mph 92 % 0.02 in 33 W/m2
06:07 54.0 °F 51.7 °F 29.91 in SSE 6.0 mph 10.0 mph 92 % 0.02 in 21 W/m2
06:12 54.0 °F 51.7 °F 29.91 in SSE 6.0 mph 12.0 mph 92 % 0.02 in 19 W/m2
06:17 54.0 °F 51.7 °F 29.91 in SSE 6.0 mph 12.0 mph 92 % 0.02 in 19 W/m2
06:22 54.0 °F 52.0 °F 29.90 in SSE 6.0 mph 11.0 mph 93 % 0.03 in 26 W/m2
06:27 53.8 °F 51.8 °F 29.90 in SSE 5.0 mph 11.0 mph 93 % 0.02 in 33 W/m2
06:32 53.8 °F 51.8 °F 29.90 in SSE 5.0 mph 9.0 mph 93 % 0.03 in 28 W/m2
06:37 53.8 °F 51.8 °F 29.90 in SSE 5.0 mph 9.0 mph 93 % 0.04 in 23 W/m2
06:42 53.8 °F 51.8 °F 29.90 in SSE 6.0 mph 10.0 mph 93 % 0.04 in 26 W/m2
06:47 53.8 °F 52.1 °F 29.90 in SSE 5.0 mph 10.0 mph 94 % 0.05 in 30 W/m2
06:52 53.8 °F 52.1 °F 29.90 in SSE 5.0 mph 10.0 mph 94 % 0.04 in 37 W/m2
06:57 53.8 °F 52.1 °F 29.90 in SE 4.0 mph 7.0 mph 94 % 0.04 in 47 W/m2
07:00 53.8 °F 52.1 °F 29.90 in SE 4.0 mph 7.0 mph 94 % 0.04 in 53 W/m2
07:05 54.0 °F 52.3 °F 29.90 in SE 4.0 mph 7.0 mph 94 % 0.04 in 51 W/m2
07:10 54.0 °F 52.3 °F 29.90 in SE 3.0 mph 7.0 mph 94 % 0.05 in 58 W/m2
07:15 54.1 °F 52.7 °F 29.90 in SSE 3.0 mph 7.0 mph 95 % 0.04 in 83 W/m2
07:20 54.1 °F 52.5 °F 29.90 in SSE 4.0 mph 9.0 mph 94 % 0.04 in 74 W/m2
07:25 54.3 °F 52.9 °F 29.91 in SSE 6.0 mph 9.0 mph 95 % 0.03 in 76 W/m2
07:30 54.3 °F 52.9 °F 29.91 in South 6.0 mph 10.0 mph 95 % 0.02 in 60 W/m2
07:35 54.3 °F 52.9 °F 29.90 in SSE 6.0 mph 10.0 mph 95 % 0.02 in 69 W/m2
07:40 54.3 °F 52.6 °F 29.91 in SSE 7.0 mph 10.0 mph 94 % 0.02 in 62 W/m2
07:45 54.3 °F 52.9 °F 29.91 in SSE 6.0 mph 10.0 mph 95 % 0.01 in 107 W/m2
07:50 54.7 °F 53.3 °F 29.91 in SE 5.0 mph 9.0 mph 95 % 0.02 in 102 W/m2
07:55 54.7 °F 53.3 °F 29.91 in SSE 5.0 mph 9.0 mph 95 % 0.02 in 105 W/m2
08:00 54.7 °F 53.3 °F 29.91 in SSE 6.0 mph 10.0 mph 95 % 0.02 in 109 W/m2
08:05 54.9 °F 53.5 °F 29.90 in SE 7.0 mph 11.0 mph 95 % 0.02 in 114 W/m2
08:10 54.9 °F 53.5 °F 29.91 in SSE 7.0 mph 11.0 mph 95 % 0.02 in 128 W/m2
08:15 54.9 °F 53.5 °F 29.91 in SSE 6.0 mph 11.0 mph 95 % 0.02 in 111 W/m2
08:20 54.9 °F 53.5 °F 29.91 in SSE 7.0 mph 13.0 mph 95 % 0.02 in 127 W/m2
08:25 55.0 °F 53.6 °F 29.91 in SSE 7.0 mph 13.0 mph 95 % 0.02 in 102 W/m2
08:30 55.0 °F 53.6 °F 29.90 in SSE 7.0 mph 12.0 mph 95 % 0.03 in 102 W/m2
08:31 55.0 °F 53.6 °F 29.90 in SE 7.0 mph 13.0 mph 95 % 0.03 in 88 W/m2
08:36 55.0 °F 53.6 °F 29.90 in SSE 8.0 mph 13.0 mph 95 % 0.03 in 102 W/m2
08:41 55.0 °F 53.6 °F 29.90 in SSE 8.0 mph 13.0 mph 95 % 0.03 in 146 W/m2
08:46 55.2 °F 53.8 °F 29.90 in SSE 8.0 mph 13.0 mph 95 % 0.03 in 130 W/m2
08:51 55.0 °F 53.6 °F 29.90 in SSE 8.0 mph 13.0 mph 95 % 0.03 in 142 W/m2
08:53 55.2 °F 53.8 °F 29.90 in SSE 8.0 mph 15.0 mph 95 % 0.03 in 127 W/m2
08:58 55.2 °F 53.8 °F 29.90 in SSE 8.0 mph 16.0 mph 95 % 0.02 in 118 W/m2
09:03 55.2 °F 53.8 °F 29.90 in SSE 10.0 mph 16.0 mph 95 % 0.02 in 139 W/m2
09:08 55.4 °F 54.0 °F 29.90 in South 10.0 mph 19.0 mph 95 % 0.02 in 156 W/m2
09:13 55.6 °F 54.2 °F 29.90 in South 10.0 mph 19.0 mph 95 % 0.02 in 146 W/m2
09:18 55.6 °F 54.2 °F 29.90 in South 9.0 mph 16.0 mph 95 % 0.02 in 134 W/m2
09:23 55.6 °F 54.2 °F 29.90 in South 8.0 mph 16.0 mph 95 % 0.02 in 148 W/m2
09:28 55.8 °F 54.3 °F 29.89 in South 8.0 mph 16.0 mph 95 % 0.01 in 158 W/m2
09:33 55.9 °F 54.5 °F 29.89 in South 9.0 mph 16.0 mph 95 % 0.01 in 183 W/m2
09:38 56.1 °F 54.7 °F 29.89 in SSE 8.0 mph 14.0 mph 95 % 0.01 in 220 W/m2
09:43 56.3 °F 54.9 °F 29.89 in South 8.0 mph 15.0 mph 95 % 0.01 in 144 W/m2
09:49 56.1 °F 54.7 °F 29.89 in South 8.0 mph 16.0 mph 95 % 0.01 in 102 W/m2
09:54 56.1 °F 54.7 °F 29.89 in SSE 9.0 mph 16.0 mph 95 % 0.02 in 127 W/m2
09:59 56.1 °F 54.7 °F 29.89 in South 8.0 mph 16.0 mph 95 % 0.02 in 135 W/m2
10:04 56.1 °F 54.7 °F 29.89 in South 7.0 mph 15.0 mph 95 % 0.02 in 141 W/m2
10:09 56.3 °F 54.9 °F 29.89 in SSE 9.0 mph 18.0 mph 95 % 0.02 in 118 W/m2
10:14 56.5 °F 55.1 °F 29.89 in SSE 9.0 mph 18.0 mph 95 % 0.02 in 121 W/m2
10:19 56.5 °F 55.1 °F 29.89 in SSE 8.0 mph 16.0 mph 95 % 0.02 in 98 W/m2
10:24 56.3 °F 54.9 °F 29.89 in SSE 8.0 mph 16.0 mph 95 % 0.02 in 81 W/m2
10:29 56.5 °F 55.1 °F 29.89 in SSE 8.0 mph 15.0 mph 95 % 0.02 in 109 W/m2
10:34 56.5 °F 55.1 °F 29.88 in SSE 8.0 mph 14.0 mph 95 % 0.02 in 91 W/m2
10:39 56.5 °F 55.1 °F 29.88 in SSE 7.0 mph 12.0 mph 95 % 0.02 in 72 W/m2
10:44 56.5 °F 55.1 °F 29.89 in SE 7.0 mph 13.0 mph 95 % 0.02 in 81 W/m2
10:49 56.5 °F 55.1 °F 29.89 in SE 8.0 mph 14.0 mph 95 % 0.02 in 90 W/m2
10:54 56.7 °F 55.2 °F 29.88 in SE 7.0 mph 14.0 mph 95 % 0.01 in 116 W/m2
10:59 56.8 °F 55.7 °F 29.88 in SE 7.0 mph 14.0 mph 96 % 0.01 in 116 W/m2
11:04 57.0 °F 55.6 °F 29.88 in SE 7.0 mph 14.0 mph 95 % 0.01 in 144 W/m2
11:09 57.2 °F 55.8 °F 29.88 in SSE 7.0 mph 13.0 mph 95 % 0.01 in 190 W/m2
11:14 57.4 °F 56.0 °F 29.88 in SSE 9.0 mph 20.0 mph 95 % 0.00 in 185 W/m2
11:19 57.7 °F 56.3 °F 29.88 in SSE 9.0 mph 20.0 mph 95 % 0.00 in 162 W/m2
11:24 57.9 °F 56.5 °F 29.88 in SSE 9.0 mph 25.0 mph 95 % 0.00 in 325 W/m2
11:29 58.5 °F 57.0 °F 29.87 in South 10.0 mph 25.0 mph 95 % 0.00 in 325 W/m2
11:34 58.8 °F 57.1 °F 29.87 in South 10.0 mph 22.0 mph 94 % 0.00 in 380 W/m2
11:35 58.8 °F 57.1 °F 29.88 in South 10.0 mph 22.0 mph 94 % 0.00 in 415 W/m2
11:40 59.4 °F 57.3 °F 29.87 in SSW 12.0 mph 22.0 mph 93 % 0.00 in 464 W/m2
11:45 59.5 °F 57.2 °F 29.87 in SSW 12.0 mph 22.0 mph 92 % 0.00 in 265 W/m2
11:50 59.9 °F 57.3 °F 29.87 in South 12.0 mph 22.0 mph 91 % 0.00 in 279 W/m2
11:55 60.1 °F 57.1 °F 29.87 in South 12.0 mph 20.0 mph 90 % 0.00 in 308 W/m2
12:00 60.3 °F 57.3 °F 29.87 in SSW 12.0 mph 24.0 mph 90 % 0.00 in 446 W/m2
12:05 60.6 °F 57.4 °F 29.86 in SSW 13.0 mph 24.0 mph 89 % 0.00 in 367 W/m2
12:10 61.0 °F 57.7 °F 29.87 in South 12.0 mph 21.0 mph 89 % 0.00 in 390 W/m2
12:15 61.3 °F 57.8 °F 29.87 in SSW 11.0 mph 20.0 mph 88 % 0.00 in 492 W/m2
12:20 61.7 °F 57.5 °F 29.87 in SSW 14.0 mph 28.0 mph 86 % 0.00 in 413 W/m2
12:25 62.2 °F 58.3 °F 29.86 in SSW 14.0 mph 28.0 mph 87 % 0.00 in 786 W/m2
12:31 62.8 °F 58.2 °F 29.86 in SSW 15.0 mph 28.0 mph 85 % 0.00 in 496 W/m2
12:36 63.0 °F 58.0 °F 29.85 in SSW 15.0 mph 28.0 mph 84 % 0.00 in 492 W/m2
12:41 63.0 °F 58.0 °F 29.86 in SSW 14.0 mph 27.0 mph 84 % 0.00 in 438 W/m2
12:43 63.0 °F 58.0 °F 29.86 in SSW 14.0 mph 27.0 mph 84 % 0.00 in 397 W/m2
12:48 63.1 °F 57.9 °F 29.86 in SSW 14.0 mph 28.0 mph 83 % 0.00 in 417 W/m2
12:53 63.1 °F 57.6 °F 29.85 in SSW 14.0 mph 28.0 mph 82 % 0.00 in 499 W/m2
12:58 63.3 °F 57.7 °F 29.85 in SSW 16.0 mph 26.0 mph 82 % 0.00 in 605 W/m2
13:03 63.9 °F 58.6 °F 29.86 in SW 17.0 mph 26.0 mph 83 % 0.00 in 714 W/m2
13:08 64.2 °F 58.3 °F 29.86 in SSW 16.0 mph 29.0 mph 81 % 0.00 in 577 W/m2
13:13 64.8 °F 58.8 °F 29.86 in SW 16.0 mph 29.0 mph 81 % 0.00 in 896 W/m2
13:19 65.3 °F 59.3 °F 29.85 in SSW 14.0 mph 27.0 mph 81 % 0.00 in 679 W/m2
13:23 65.8 °F 59.5 °F 29.85 in SSW 14.0 mph 25.0 mph 80 % 0.00 in 538 W/m2
13:29 65.8 °F 59.1 °F 29.85 in SSW 14.0 mph 24.0 mph 79 % 0.00 in 387 W/m2
13:34 65.8 °F 59.1 °F 29.85 in SSW 15.0 mph 23.0 mph 79 % 0.00 in 439 W/m2
13:39 65.8 °F 58.8 °F 29.85 in SSW 15.0 mph 29.0 mph 78 % 0.00 in 461 W/m2
13:44 65.8 °F 59.1 °F 29.85 in SSW 14.0 mph 29.0 mph 79 % 0.00 in 429 W/m2
13:49 66.0 °F 59.3 °F 29.85 in SSW 13.0 mph 26.0 mph 79 % 0.00 in 489 W/m2
13:54 66.0 °F 59.3 °F 29.85 in SSW 14.0 mph 31.0 mph 79 % 0.00 in 446 W/m2
13:59 66.0 °F 59.3 °F 29.85 in SSW 15.0 mph 31.0 mph 79 % 0.00 in 503 W/m2
14:04 66.4 °F 59.7 °F 29.85 in SSW 13.0 mph 25.0 mph 79 % 0.00 in 531 W/m2
14:09 66.4 °F 59.3 °F 29.85 in SSW 15.0 mph 29.0 mph 78 % 0.00 in 459 W/m2
14:14 66.4 °F 59.7 °F 29.85 in SW 17.0 mph 29.0 mph 79 % 0.00 in 489 W/m2
14:19 66.4 °F 60.0 °F 29.85 in SW 15.0 mph 26.0 mph 80 % 0.00 in 427 W/m2
14:24 66.6 °F 60.2 °F 29.85 in SW 13.0 mph 23.0 mph 80 % 0.00 in 478 W/m2
14:29 66.7 °F 60.4 °F 29.85 in SW 12.0 mph 21.0 mph 80 % 0.00 in 417 W/m2
14:34 66.7 °F 59.7 °F 29.85 in SSW 14.0 mph 26.0 mph 78 % 0.00 in 343 W/m2
14:39 66.6 °F 59.5 °F 29.85 in SW 16.0 mph 28.0 mph 78 % 0.00 in 332 W/m2
14:44 66.6 °F 59.8 °F 29.85 in SSW 17.0 mph 28.0 mph 79 % 0.00 in 392 W/m2
14:49 66.6 °F 59.8 °F 29.85 in SSW 16.0 mph 28.0 mph 79 % 0.00 in 339 W/m2
14:54 66.6 °F 59.8 °F 29.85 in SW 14.0 mph 24.0 mph 79 % 0.00 in 327 W/m2
14:59 66.6 °F 59.8 °F 29.85 in SW 15.0 mph 25.0 mph 79 % 0.00 in 352 W/m2
15:04 66.6 °F 59.8 °F 29.85 in SW 16.0 mph 25.0 mph 79 % 0.00 in 334 W/m2
15:09 66.4 °F 60.0 °F 29.85 in SSW 16.0 mph 26.0 mph 80 % 0.00 in 299 W/m2
15:14 66.4 °F 60.0 °F 29.85 in SSW 16.0 mph 26.0 mph 80 % 0.00 in 269 W/m2
15:19 66.2 °F 59.8 °F 29.85 in SSW 15.0 mph 23.0 mph 80 % 0.00 in 244 W/m2
15:24 66.0 °F 59.7 °F 29.85 in SSW 14.0 mph 23.0 mph 80 % 0.00 in 192 W/m2
15:29 66.0 °F 60.0 °F 29.85 in SSW 13.0 mph 23.0 mph 81 % 0.00 in 148 W/m2
15:34 65.8 °F 59.8 °F 29.85 in SSW 11.0 mph 19.0 mph 81 % 0.00 in 134 W/m2
15:39 65.8 °F 59.8 °F 29.85 in SSW 11.0 mph 20.0 mph 81 % 0.00 in 114 W/m2
15:44 65.8 °F 60.2 °F 29.85 in SSW 11.0 mph 20.0 mph 82 % 0.00 in 109 W/m2
15:45 65.8 °F 60.2 °F 29.85 in SSW 11.0 mph 20.0 mph 82 % 0.00 in 105 W/m2
15:50 65.7 °F 60.0 °F 29.85 in South 11.0 mph 22.0 mph 82 % 0.00 in 88 W/m2
15:55 65.7 °F 60.0 °F 29.85 in SSW 12.0 mph 22.0 mph 82 % 0.00 in 113 W/m2
16:00 65.7 °F 60.0 °F 29.85 in SSW 11.0 mph 20.0 mph 82 % 0.00 in 88 W/m2
16:05 65.7 °F 60.0 °F 29.85 in SSW 10.0 mph 18.0 mph 82 % 0.00 in 91 W/m2
16:10 65.7 °F 60.0 °F 29.85 in SSW 10.0 mph 16.0 mph 82 % 0.00 in 93 W/m2
16:15 65.7 °F 60.0 °F 29.85 in SSW 10.0 mph 19.0 mph 82 % 0.00 in 83 W/m2
16:20 65.7 °F 60.0 °F 29.85 in SSW 10.0 mph 19.0 mph 82 % 0.00 in 69 W/m2
16:25 65.8 °F 60.2 °F 29.84 in South 8.0 mph 15.0 mph 82 % 0.00 in 77 W/m2
16:30 65.8 °F 60.5 °F 29.84 in South 8.0 mph 16.0 mph 83 % 0.00 in 67 W/m2
16:35 65.8 °F 60.5 °F 29.84 in South 7.0 mph 16.0 mph 83 % 0.00 in 69 W/m2
16:40 65.8 °F 60.5 °F 29.84 in SSW 7.0 mph 14.0 mph 83 % 0.00 in 60 W/m2
16:41 65.8 °F 60.5 °F 29.84 in SSW 7.0 mph 14.0 mph 83 % 0.00 in 60 W/m2
16:46 65.8 °F 60.5 °F 29.84 in SSW 8.0 mph 14.0 mph 83 % 0.00 in 47 W/m2
16:51 65.8 °F 60.5 °F 29.84 in South 8.0 mph 13.0 mph 83 % 0.00 in 47 W/m2
16:56 65.8 °F 60.5 °F 29.84 in SSW 8.0 mph 16.0 mph 83 % 0.00 in 49 W/m2
17:01 66.0 °F 60.7 °F 29.84 in SSW 9.0 mph 19.0 mph 83 % 0.00 in 49 W/m2
17:06 66.0 °F 60.7 °F 29.84 in SSW 8.0 mph 19.0 mph 83 % 0.00 in 40 W/m2
17:11 66.0 °F 60.7 °F 29.84 in SSW 8.0 mph 14.0 mph 83 % 0.00 in 32 W/m2
17:16 66.0 °F 60.7 °F 29.84 in SSW 8.0 mph 14.0 mph 83 % 0.00 in 33 W/m2
17:21 66.0 °F 60.7 °F 29.84 in SSW 8.0 mph 14.0 mph 83 % 0.00 in 56 W/m2
17:26 66.0 °F 61.0 °F 29.84 in South 7.0 mph 13.0 mph 84 % 0.00 in 53 W/m2
17:31 65.8 °F 61.2 °F 29.84 in South 6.0 mph 13.0 mph 85 % 0.00 in 65 W/m2
17:36 65.7 °F 61.4 °F 29.84 in South 5.0 mph 11.0 mph 86 % 0.00 in 54 W/m2
17:41 65.5 °F 61.2 °F 29.84 in SSW 6.0 mph 11.0 mph 86 % 0.00 in 51 W/m2
17:46 65.5 °F 61.5 °F 29.84 in South 5.0 mph 11.0 mph 87 % 0.00 in 65 W/m2
17:51 65.5 °F 61.5 °F 29.84 in South 5.0 mph 12.0 mph 87 % 0.00 in 65 W/m2
17:56 65.5 °F 61.5 °F 29.84 in South 6.0 mph 12.0 mph 87 % 0.00 in 98 W/m2
18:01 65.7 °F 61.7 °F 29.84 in SSW 7.0 mph 11.0 mph 87 % 0.00 in 102 W/m2
18:06 65.7 °F 61.7 °F 29.84 in SSW 8.0 mph 15.0 mph 87 % 0.00 in 76 W/m2
18:11 65.7 °F 61.4 °F 29.84 in SSW 9.0 mph 15.0 mph 86 % 0.00 in 83 W/m2
18:16 65.8 °F 61.5 °F 29.84 in SSW 10.0 mph 20.0 mph 86 % 0.00 in 77 W/m2
18:21 66.0 °F 61.7 °F 29.84 in SSW 10.0 mph 21.0 mph 86 % 0.00 in 70 W/m2
18:26 66.0 °F 61.4 °F 29.84 in SSW 9.0 mph 21.0 mph 85 % 0.00 in 60 W/m2
18:31 66.0 °F 61.4 °F 29.84 in SSW 8.0 mph 18.0 mph 85 % 0.00 in 69 W/m2
18:36 66.0 °F 61.4 °F 29.84 in SSW 9.0 mph 18.0 mph 85 % 0.00 in 54 W/m2
18:41 66.0 °F 61.4 °F 29.84 in SSW 10.0 mph 18.0 mph 85 % 0.00 in 53 W/m2
18:46 66.0 °F 61.4 °F 29.84 in SSW 10.0 mph 18.0 mph 85 % 0.00 in 44 W/m2
18:51 66.0 °F 61.4 °F 29.84 in SSW 9.0 mph 15.0 mph 85 % 0.00 in 33 W/m2
18:56 66.0 °F 61.4 °F 29.84 in SSW 9.0 mph 14.0 mph 85 % 0.00 in 35 W/m2
19:01 65.8 °F 61.5 °F 29.84 in SSW 9.0 mph 15.0 mph 86 % 0.00 in 35 W/m2
19:06 65.8 °F 61.5 °F 29.84 in SSW 9.0 mph 15.0 mph 86 % 0.00 in 35 W/m2
19:11 65.8 °F 61.5 °F 29.84 in SSW 10.0 mph 18.0 mph 86 % 0.00 in 40 W/m2
19:15 65.8 °F 61.5 °F 29.84 in SSW 9.0 mph 18.0 mph 86 % 0.00 in 46 W/m2
19:20 65.8 °F 61.5 °F 29.84 in SSW 9.0 mph 14.0 mph 86 % 0.00 in 39 W/m2
19:25 65.8 °F 61.5 °F 29.84 in SSW 9.0 mph 15.0 mph 86 % 0.00 in 33 W/m2
19:30 65.8 °F 61.5 °F 29.84 in SSW 10.0 mph 16.0 mph 86 % 0.00 in 26 W/m2
19:35 65.8 °F 61.5 °F 29.84 in SSW 9.0 mph 16.0 mph 86 % 0.00 in 16 W/m2
19:40 65.7 °F 61.4 °F 29.84 in SSW 9.0 mph 14.0 mph 86 % 0.00 in 14 W/m2
19:45 65.7 °F 61.4 °F 29.84 in SW 9.0 mph 15.0 mph 86 % 0.00 in 16 W/m2
19:50 65.5 °F 61.2 °F 29.84 in SW 9.0 mph 15.0 mph 86 % 0.00 in 16 W/m2
19:55 65.5 °F 61.2 °F 29.84 in SW 9.0 mph 14.0 mph 86 % 0.00 in 14 W/m2
20:00 65.5 °F 61.2 °F 29.84 in SSW 8.0 mph 14.0 mph 86 % 0.00 in 16 W/m2
20:05 65.5 °F 61.5 °F 29.84 in SSW 8.0 mph 13.0 mph 87 % 0.00 in 18 W/m2
20:10 65.3 °F 61.3 °F 29.84 in SSW 9.0 mph 21.0 mph 87 % 0.00 in 14 W/m2
20:15 65.3 °F 61.3 °F 29.84 in SSW 10.0 mph 21.0 mph 87 % 0.00 in 16 W/m2
20:20 65.1 °F 61.2 °F 29.84 in SSW 10.0 mph 18.0 mph 87 % 0.00 in 18 W/m2
20:25 65.1 °F 61.2 °F 29.84 in SSW 9.0 mph 15.0 mph 87 % 0.00 in 21 W/m2
20:30 65.1 °F 61.2 °F 29.84 in SSW 9.0 mph 15.0 mph 87 % 0.00 in 14 W/m2
20:35 65.1 °F 61.2 °F 29.84 in SSW 9.0 mph 15.0 mph 87 % 0.00 in 9 W/m2
20:40 64.9 °F 61.0 °F 29.84 in SSW 9.0 mph 15.0 mph 87 % 0.00 in 9 W/m2
20:45 64.8 °F 61.1 °F 29.84 in SSW 8.0 mph 15.0 mph 88 % 0.00 in 5 W/m2
20:50 64.6 °F 61.3 °F 29.84 in SSW 7.0 mph 12.0 mph 89 % 0.00 in 7 W/m2
20:55 64.6 °F 61.3 °F 29.84 in SSW 7.0 mph 13.0 mph 89 % 0.00 in 5 W/m2
21:00 64.4 °F 61.1 °F 29.84 in SSW 7.0 mph 13.0 mph 89 % 0.00 in 0 W/m2
21:05 64.2 °F 60.9 °F 29.84 in SSW 8.0 mph 15.0 mph 89 % 0.00 in 0 W/m2
21:10 64.0 °F 61.0 °F 29.84 in SW 7.0 mph 15.0 mph 90 % 0.00 in 0 W/m2
21:15 63.9 °F 60.9 °F 29.84 in SW 6.0 mph 12.0 mph 90 % 0.00 in 0 W/m2
21:20 63.7 °F 61.0 °F 29.85 in SW 5.0 mph 12.0 mph 91 % 0.00 in 0 W/m2
21:25 63.5 °F 61.1 °F 29.85 in WSW 5.0 mph 8.0 mph 92 % 0.00 in 0 W/m2
21:30 63.1 °F 60.8 °F 29.85 in WSW 6.0 mph 12.0 mph 92 % 0.00 in 0 W/m2
21:35 63.0 °F 60.6 °F 29.85 in WSW 7.0 mph 12.0 mph 92 % 0.00 in 0 W/m2
21:40 62.6 °F 60.2 °F 29.85 in WSW 7.0 mph 12.0 mph 92 % 0.00 in 0 W/m2
21:45 62.2 °F 59.9 °F 29.86 in WSW 9.0 mph 22.0 mph 92 % 0.00 in 0 W/m2
21:50 62.1 °F 60.0 °F 29.85 in WSW 10.0 mph 22.0 mph 93 % 0.00 in 0 W/m2
21:55 61.9 °F 59.8 °F 29.85 in SW 9.0 mph 20.0 mph 93 % 0.00 in 0 W/m2
22:00 61.7 °F 59.4 °F 29.85 in SW 8.0 mph 15.0 mph 92 % 0.00 in 0 W/m2
22:06 61.7 °F 59.4 °F 29.85 in SW 9.0 mph 15.0 mph 92 % 0.00 in 0 W/m2
22:11 61.7 °F 59.0 °F 29.85 in SW 9.0 mph 14.0 mph 91 % 0.00 in 0 W/m2
22:15 61.7 °F 58.7 °F 29.85 in WSW 8.0 mph 13.0 mph 90 % 0.00 in 0 W/m2
22:20 61.5 °F 58.6 °F 29.85 in SW 9.0 mph 20.0 mph 90 % 0.00 in 0 W/m2
22:25 61.5 °F 58.2 °F 29.86 in SW 10.0 mph 20.0 mph 89 % 0.00 in 0 W/m2
22:30 61.5 °F 58.2 °F 29.86 in SW 9.0 mph 16.0 mph 89 % 0.00 in 0 W/m2
22:36 61.5 °F 57.9 °F 29.86 in SW 9.0 mph 18.0 mph 88 % 0.00 in 0 W/m2
22:41 61.3 °F 57.8 °F 29.86 in SW 9.0 mph 18.0 mph 88 % 0.00 in 0 W/m2
22:46 61.3 °F 57.8 °F 29.86 in SW 8.0 mph 12.0 mph 88 % 0.00 in 0 W/m2
22:51 61.2 °F 57.6 °F 29.86 in SW 9.0 mph 13.0 mph 88 % 0.00 in 0 W/m2
22:56 61.0 °F 57.4 °F 29.86 in SW 8.0 mph 13.0 mph 88 % 0.00 in 0 W/m2
23:01 60.6 °F 57.0 °F 29.86 in SW 7.0 mph 13.0 mph 88 % 0.00 in 0 W/m2
23:06 60.4 °F 56.9 °F 29.86 in SW 7.0 mph 14.0 mph 88 % 0.00 in 0 W/m2
23:16 60.1 °F 56.2 °F 29.86 in SW 7.0 mph 10.0 mph 87 % 0.00 in 0 W/m2
23:21 59.7 °F 55.8 °F 29.86 in SW 6.0 mph 10.0 mph 87 % 0.00 in 0 W/m2
23:26 59.5 °F 55.7 °F 29.86 in SW 6.0 mph 10.0 mph 87 % 0.00 in 0 W/m2
23:31 59.4 °F 55.5 °F 29.86 in WSW 6.0 mph 11.0 mph 87 % 0.00 in 0 W/m2
23:36 59.2 °F 55.3 °F 29.86 in WSW 6.0 mph 12.0 mph 87 % 0.00 in 0 W/m2
23:41 58.8 °F 54.6 °F 29.86 in WSW 6.0 mph 12.0 mph 86 % 0.00 in 0 W/m2
23:46 58.6 °F 54.5 °F 29.86 in WSW 6.0 mph 10.0 mph 86 % 0.00 in 0 W/m2
23:51 58.6 °F 54.5 °F 29.87 in WSW 7.0 mph 13.0 mph 86 % 0.00 in 0 W/m2
23:56 58.6 °F 54.1 °F 29.87 in SW 9.0 mph 14.0 mph 85 % 0.00 in 0 W/m2
Delerius-Weather
Compliments of Weather Underground - 2.25 mb

Data updates at regular intervals.